Home   Weather   Virginia Beach   Past weeks

Flag for USA Past Weather in Virginia Beach, Virginia, USA — Yesterday and Last 2 Weeks

Now
60 °F

Passing clouds.


Feels Like: 60 °F
Forecast: 46 / 62 °F
Wind: 6 mph from West

Location: Virginia Beach - Oceana

Current Time: Jan 18, 2017 at 9:23:21 am

Latest Report: Jan 18, 2017 at 8:56 am


Visibility: 10 mi

Pressure: 29.89 "Hg

Humidity: 86%

Dew Point: 56 °F

Location of Virginia BeachLocation

Past Weather in Virginia Beach — Graph

°F

Virginia Beach Temperature Yesterday

Maximum temperature yesterday: 59 °F (at 1:56 pm)
Minimum temperature yesterday: 43 °F (at 12:56 am)
Average temperature yesterday: 52 °F

High & Low Weather Summary for the Past Weeks

 TemperatureHumidityPressure
High71 °F (Jan 12, 12:56 pm)97% (Jan 3, 7:15 am)30.82 "Hg (Jan 3, 7:15 am)
Low11 °F (Jan 10, 3:56 am)28% (Jan 5, 11:56 am)29.56 "Hg (Jan 4, 2:11 am)
Average41 °F75%30.24 "Hg
* Reported Jan 3 7:15 am — Jan 18 7:56 am, Virginia Beach, Weather by CustomWeather, © 2017

Note: Actual official high and low records may vary slightly from our data, if they occured in-between our weather recording intervals... More about our weather records

Advertising

Virginia Beach Weather History for the Previous 24 Hours

Scroll right to see more
 ConditionsComfort  
Time TempWeatherWind HumidityBarometerVisibility
7:56 am
Wed, Jan 18
58 °FOvercast.6 mph87%29.87 "Hg10 mi
6:56 am59 °FLight rain. Overcast.8 mph87%29.88 "Hg10 mi
5:56 am59 °FMostly cloudy.9 mph84%29.88 "Hg10 mi
4:56 am59 °FMostly cloudy.7 mph84%29.90 "Hg10 mi
3:56 am59 °FMostly cloudy.8 mph84%29.90 "Hg10 mi
2:56 am60 °FMostly cloudy.14 mph80%29.90 "Hg10 mi
1:56 am59 °FMostly cloudy.14 mph84%29.92 "Hg10 mi
12:56 am60 °FMostly cloudy.15 mph80%29.95 "Hg10 mi
11:56 pm
Tue, Jan 17
59 °FMostly cloudy.13 mph84%29.97 "Hg10 mi
10:56 pm58 °FPassing clouds.13 mph87%30.00 "Hg10 mi
9:56 pm59 °FOvercast.13 mph81%30.02 "Hg10 mi
9:26 pm59 °FOvercast.17 mph81%30.03 "Hg10 mi
8:56 pm59 °FLight rain. Passing clouds.14 mph81%30.03 "Hg10 mi
8:38 pm58 °FLight rain. Mostly cloudy.12 mph81%30.04 "Hg10 mi
7:56 pm58 °FMostly cloudy.12 mph81%30.05 "Hg10 mi
6:56 pm59 °FPartly cloudy.13 mph78%30.05 "Hg10 mi
5:56 pm58 °FMostly cloudy.9 mph84%30.06 "Hg10 mi
4:56 pm57 °FMostly cloudy.10 mph83%30.06 "Hg10 mi
3:56 pm58 °FPartly sunny.13 mph78%30.08 "Hg10 mi
3:25 pm59 °FPartly sunny.13 mph75%30.08 "Hg10 mi
2:56 pm59 °FPartly sunny.10 mph75%30.09 "Hg10 mi
1:56 pm59 °FOvercast.12 mph75%30.13 "Hg10 mi
12:56 pm56 °FOvercast.9 mph77%30.14 "Hg10 mi
11:56 am53 °FOvercast.8 mph80%30.18 "Hg10 mi
11:37 am52 °FMostly cloudy.9 mph80%30.19 "Hg10 mi
10:56 am50 °FLow clouds.7 mph83%30.22 "Hg10 mi
9:56 am49 °FLow clouds.7 mph84%30.26 "Hg10 mi
9:26 am47 °FMore clouds than sun.6 mph86%30.25 "Hg10 mi
Weather by CustomWeather, © 2017

See weather overviewHow to use our weather pages